This demonstration page uses our WeatherBlox Daily Observations layout. Learn more.

Left ArrowRight Arrow

44.89941, -97.11507

Hourly Observations for August 15, 2016

Temp ( °F °C ) Dew Point ( °F °C ) Humidity (%) Winds ( mph kmh ) Pressure ( in mb ) Visibility ( mi km ) Precip ( " mm )
12:53 am 00:53 Clear 68 20 59 15 73 73 S 10 17 30.01 1016 10 16 0.00 0.00
1:53 am 01:53 Clear 67 19.4 61 16.1 81 81 WSW 13 20 30.03 1017 10 16 0.00 0.00
2:53 am 02:53 Clear 69 20.6 61 16.1 76 76 SSE 6 9 30.02 1017 10 16 0.00 0.00
3:53 am 03:53 Mostly Clear 68 20 61 16.1 78 78 SSE 10 17 30.01 1016 10 16 0.00 0.00
4:53 am 04:53 Cloudy with Light Rain 67 19.4 63 17.2 87 87 S 9 15 30.01 1016 10 16 0.00 0.03
5:53 am 05:53 Cloudy with Light Rain 65 18.3 61 16.1 87 87 S 8 13 30.00 1016 10 16 0.04 1.02
6:53 am 06:53 Cloudy 64 17.8 61 16.1 90 90 S 3 6 29.98 1015 10 16 0.01 0.25
7:53 am 07:53 Cloudy 65 18.3 62 16.7 90 90 Calm 30.00 1016 10 16 0.00 0.00
8:53 am 08:53 Mostly Sunny 66 18.9 63 17.2 90 90 N 7 11 30.01 1016 10 16 0.00 0.00
9:53 am 09:53 Cloudy 68 20 62 16.7 81 81 ENE 5 7 30.02 1017 10 16 0.00 0.00
10:53 am 10:53 Sunny 70 21.1 62 16.7 76 76 SE 6 9 30.03 1017 10 16 0.00 0.00
11:53 am 11:53 Sunny 74 23.3 63 17.2 69 69 SSE 8 13 30.03 1017 10 16 0.00 0.00
12:53 pm 12:53 Mostly Sunny 76 24.4 63 17.2 64 64 S 8 13 30.02 1017 10 16 0.00 0.00
1:53 pm 13:53 Partly Cloudy 78 25.6 64 17.8 62 62 SSW 7 11 30.01 1016 10 16 0.00 0.00
2:53 pm 14:53 Mostly Sunny 80 26.7 64 17.8 58 58 S 9 15 29.99 1016 10 16 0.00 0.00
3:53 pm 15:53 Mostly Sunny 81 27.2 64 17.8 57 57 SSW 10 17 29.98 1015 10 16 0.00 0.00
4:53 pm 16:53 Partly Cloudy 80 26.7 65 18.3 60 60 S 6 9 29.98 1015 10 16 0.00 0.00
5:53 pm 17:53 Sunny 80 26.7 65 18.3 60 60 S 7 11 29.97 1015 10 16 0.00 0.00
6:53 pm 18:53 Mostly Sunny 79 26.1 66 18.9 65 65 S 9 15 29.96 1015 10 16 0.00 0.00
7:53 pm 19:53 Sunny 76 24.4 67 19.4 74 74 S 8 13 29.96 1015 10 16 0.00 0.00
8:53 pm 20:53 Clear 73 22.8 67 19.4 81 81 SSE 7 11 29.97 1015 10 16 0.00 0.00
9:53 pm 21:53 Clear 71 21.7 66 18.9 84 84 SSE 5 7 29.99 1016 10 16 0.00 0.00
10:53 pm 22:53 Clear 71 21.7 65 18.3 81 81 SE 7 11 29.97 1015 10 16 0.00 0.00
11:53 pm 23:53 Clear 69 20.6 64 17.8 84 84 SSE 5 7 29.98 1015 10 16 0.00 0.00

Powered by AerisWeather